Dewpoint
52 51 51 50 50 49 50 48 46 46 46 46 46 46 46 46 46 42 39 40 39 34 34 31 28 26 25 29 28 31 35 40 42 28 27 27 24 27 26 30 27 23 26 26 31 27 22 55 54 36 39 52 54 53
52 51 51 51 50 50 50 49 46 46 45 46 46 46 46 46 46 43 33 38 40 38 33 36 33 35 29 28 26 31 38 38 42 39 40 37 31 34 30 25 36 31 31 31 29 29 48 54 55 58 55 54 54 53
51 51 51 51 50 50 50 49 46 46 45 46 46 46 46 45 45 44 37 37 38 37 36 34 33 35 35 32 27 24 34 36 34 44 44 42 35 36 30 34 34 39 43 46 47 49 52 54 55 60 61 60 61 56
51 51 51 50 50 50 50 49 47 46 46 46 46 46 46 45 45 45 38 37 38 37 33 34 37 36 36 28 28 30 31 34 38 40 39 38 34 33 31 31 33 37 45 49 50 51 52 52 54 55 57 60 61 60
50 50 50 50 51 50 50 50 47 46 45 46 46 46 46 45 45 43 39 39 40 39 34 36 37 37 37 32 26 30 30 29 29 30 34 34 34 32 35 42 44 46 44 44 45 50 50 51 55 58 59 61 61 60
50 50 50 51 51 50 50 49 48 46 46 45 46 46 46 46 46 39 39 41 42 41 36 28 35 38 36 31 31 30 34 35 34 29 30 32 34 33 31 39 45 46 48 49 49 53 54 56 57 59 61 61 61 60
50 50 50 50 50 50 50 49 47 46 45 46 46 47 46 46 40 34 39 42 44 40 38 35 35 37 36 33 33 31 33 35 32 32 28 28 28 35 35 35 44 46 46 49 53 54 51 53 54 60 61 61 60 60
50 50 50 49 49 50 50 48 48 46 45 46 47 47 47 47 44 40 43 46 44 39 39 35 35 36 39 32 30 34 32 32 32 32 34 28 29 31 23 31 35 43 46 47 49 47 49 50 52 59 59 59 57 57
49 49 49 48 49 50 49 47 47 46 46 46 47 46 41 40 39 42 49 46 43 41 37 36 34 34 41 39 35 36 35 30 34 32 31 31 30 24 24 31 34 40 43 43 46 46 45 48 49 52 55 54 55 55
48 48 48 48 49 49 48 47 46 47 47 45 39 39 37 41 48 45 41 40 40 39 37 34 37 37 39 39 40 39 38 32 31 33 33 30 29 36 44 45 45 45 41 45 43 43 44 44 45 46 47 48 48 48
48 48 48 48 49 48 47 47 46 46 40 38 37 39 42 44 41 39 36 36 36 35 36 37 36 34 38 37 38 40 37 38 33 33 30 30 38 43 45 44 45 46 46 46 47 47 47 46 47 48 49 50 51 50
49 49 49 48 49 48 47 48 46 39 38 38 37 39 39 40 36 34 33 35 36 34 37 36 35 34 39 44 40 40 36 37 32 39 37 35 41 44 46 47 47 46 46 46 46 45 46 47 48 49 49 50 52 52
49 49 49 49 49 48 47 47 46 42 41 40 38 36 37 34 28 31 30 32 33 36 38 39 39 41 43 45 41 37 33 33 40 37 36 41 44 46 46 47 48 47 46 45 46 47 47 47 47 47 47 49 51 52
49 49 50 49 49 48 48 47 47 43 37 37 36 25 32 28 32 33 33 33 36 41 42 41 41 41 43 41 41 34 37 39 36 33 36 45 47 48 46 46 45 45 45 45 46 47 48 48 48 48 48 48 50 50
49 49 49 49 49 48 48 48 46 39 38 37 40 31 33 34 35 36 37 39 42 45 44 43 42 41 40 40 39 37 37 35 37 36 45 48 48 47 45 45 45 45 45 45 46 47 48 48 49 49 49 49 49 49
48 48 47 49 48 48 48 45 39 38 39 38 37 34 36 35 35 37 37 38 42 45 44 43 39 35 34 35 35 34 34 34 37 40 43 44 43 43 43 44 44 45 46 46 46 47 48 48 49 49 49 49 49 49
45 44 48 48 48 47 44 37 36 34 36 37 35 38 36 36 35 38 40 41 45 43 39 38 32 32 37 34 34 38 36 39 41 43 44 43 42 43 44 44 45 46 46 46 47 49 49 51 52 51 51 50 50 50
43 47 48 48 44 41 39 38 37 36 34 35 33 33 37 40 39 41 42 45 42 39 39 35 36 34 33 34 36 39 40 42 42 42 42 42 43 43 45 46 48 49 50 51 52 52 52 50 51 51 51 52 50 50
46 46 47 46 39 36 32 35 38 36 36 35 35 35 39 41 43 45 42 41 40 39 37 34 32 32 36 38 39 40 41 43 41 42 42 43 44 45 49 51 52 52 52 53 53 52 53 53 53 53 52 52 50 51
47 47 45 45 41 40 39 37 40 36 34 36 38 39 39 39 43 40 39 39 35 35 33 34 36 39 39 40 41 41 42 43 42 44 43 45 47 49 51 51 51 52 52 52 52 49 52 52 52 52 51 51 51 50
44 44 43 41 39 38 38 37 36 36 36 36 40 39 38 42 39 37 37 38 35 34 35 39 40 40 41 41 43 43 43 43 46 46 46 47 49 50 51 50 51 51 51 51 50 50 49 50 51 52 51 51 51 50
43 42 38 40 39 41 41 40 37 39 37 38 40 39 39 39 37 37 36 36 35 36 38 39 39 39 41 41 42 43 44 46 47 49 47 48 48 50 50 50 50 50 50 50 50 50 50 50 51 50 50 50 50 50
44 42 42 39 36 32 30 40 36 37 34 35 35 34 34 34 35 36 33 34 36 37 38 39 40 41 41 44 45 45 46 49 49 50 50 50 51 50 50 50 51 50 49 49 50 49 48 46 47 48 48 48 48 49
43 39 37 37 36 24 33 35 36 33 33 32 33 32 32 34 36 34 33 35 35 39 41 43 46 46 46 47 47 48 49 51 50 49 50 50 48 48 49 49 48 48 48 48 47 47 46 46 44 45 45 45 45 45
29 24 29 22 30 33 31 31 30 30 31 33 32 33 36 34 32 34 34 38 41 43 45 46 46 46 46 46 48 49 51 50 48 47 47 48 46 46 46 46 46 46 47 46 45 45 46 46 46 45 45 46 46 43
23 30 26 33 31 30 29 28 27 29 31 32 33 34 35 35 34 33 38 41 43 44 46 47 47 47 47 48 48 48 49 50 48 47 47 47 45 44 43 43 43 44 47 46 46 46 46 46 46 46 46 46 43 43
26 29 37 36 35 34 32 32 34 33 33 32 36 37 37 34 34 38 42 45 45 47 49 49 49 48 48 48 49 49 50 50 50 49 50 50 48 46 45 44 44 45 47 48 48 49 49 48 48 48 47 45 47 45
36 37 31 34 33 34 37 37 37 36 38 40 39 37 36 36 37 41 44 48 50 51 52 51 51 51 50 49 49 49 48 48 47 44 46 46 47 48 48 47 45 39 43 44 48 49 47 43 43 43 43 44 44 45
36 38 37 34 37 34 37 38 39 42 42 41 39 39 39 42 45 47 49 51 51 50 49 47 48 49 48 48 48 49 49 48 42 40 42 42 42 41 41 41 40 40 39 39 37 41 44 43 44 44 44 43 44 44
38 40 38 39 37 37 41 42 42 47 46 46 45 46 46 47 49 50 50 49 48 48 48 48 48 47 46 46 46 47 45 46 46 37 38 39 38 39 40 41 41 41 41 40 38 38 37 41 41 43 42 42 42 41
43 42 40 41 41 43 45 47 48 48 47 47 47 44 44 45 45 47 48 48 48 48 47 46 46 46 46 46 46 46 43 42 43 44 38 37 37 37 38 39 41 42 42 41 39 38 37 39 41 42 42 42 41 39
43 42 43 41 43 46 48 46 46 45 43 42 40 41 41 42 41 43 45 47 46 45 45 46 46 45 47 46 44 45 39 42 43 43 41 41 42 43 44 43 43 42 43 43 43 41 42 43 43 42 40 40 40 39
43 42 41 41 41 40 40 40 39 38 39 39 39 40 41 41 39 41 44 46 45 43 44 45 46 47 46 43 43 41 38 39 37 37 37 38 38 39 40 40 42 43 43 43 42 42 41 41 41 41 41 39 38 38
Lifted_Index
8 8 8 8 8 8 8 10 11 11 11 11 11 11 11 11 11 11 9 8 8 8 8 8 7 5 4 3 1 1 1 0 1 1 1 2 2 2 3 3 2 2 2 2 2 1 -1 -3 -3 -1 -1 -1 -2 -1
8 8 8 8 8 8 8 9 11 11 11 11 11 11 11 11 11 11 10 8 8 7 7 7 7 6 5 4 3 1 0 -0 0 1 1 1 2 2 2 2 2 1 1 1 1 0 -2 -3 -3 -3 -2 -2 -2 -2
8 8 8 8 8 8 8 9 10 11 11 11 11 11 11 11 11 11 10 9 8 7 7 6 6 6 6 5 4 3 1 1 0 0 1 1 1 2 2 2 1 1 -0 -0 -0 -1 -3 -4 -4 -4 -3 -3 -3 -3
8 8 8 8 8 8 8 8 10 11 11 11 11 11 11 11 11 10 9 8 7 7 6 4 4 5 5 5 5 5 4 3 2 1 0 0 1 1 1 1 1 0 -1 -1 -1 -2 -3 -3 -3 -3 -4 -4 -4 -5
8 8 8 8 8 8 8 8 9 10 11 11 11 11 11 11 10 9 7 6 6 6 5 4 3 4 4 4 4 5 6 6 4 3 1 1 1 1 1 1 0 -0 -0 -1 -1 -2 -2 -2 -3 -3 -4 -4 -4 -5
7 7 8 8 8 8 8 8 9 10 11 11 11 10 10 11 10 7 6 5 5 6 5 3 2 3 3 4 4 5 6 7 7 5 4 3 3 2 2 1 0 -0 -0 -1 -1 -1 -1 -2 -2 -3 -4 -4 -4 -4
7 7 7 8 8 8 8 8 9 10 10 11 10 10 10 10 10 7 5 5 5 5 5 3 1 2 2 3 4 5 6 7 7 7 6 5 5 4 3 2 1 -0 -0 -1 -1 -1 -0 -1 -2 -3 -4 -4 -4 -3
7 7 7 7 8 8 8 8 9 10 10 10 10 10 9 9 8 6 5 5 5 5 4 2 1 1 1 2 3 4 5 6 6 6 6 6 6 6 5 4 2 1 0 -0 -0 -0 0 -0 -1 -2 -3 -3 -2 -2
7 7 7 7 8 8 8 9 9 10 10 10 10 9 8 7 6 5 5 5 5 5 4 2 1 -0 0 1 2 2 3 4 4 5 5 6 6 6 6 5 4 2 2 1 1 1 1 1 0 -0 -1 -1 -0 -0
6 7 7 7 7 8 8 8 9 9 10 9 8 7 5 5 4 4 5 4 4 5 4 3 1 -0 -0 0 1 1 2 2 3 3 4 5 5 5 4 4 4 3 3 2 2 2 2 2 2 2 1 2 2 2
5 5 6 7 7 7 7 8 8 9 9 8 6 5 4 4 4 4 4 4 3 3 3 3 2 0 -0 -0 0 1 1 2 2 3 3 3 3 3 3 3 3 3 3 2 2 2 2 2 3 3 3 3 3 3
3 4 5 5 6 6 7 7 8 9 8 6 5 4 4 4 4 4 4 3 2 2 2 2 1 0 -0 -0 -0 0 1 1 2 2 2 2 2 2 2 2 2 2 2 2 2 2 2 2 3 3 3 3 3 3
2 3 3 4 5 5 6 6 7 8 6 5 4 4 4 4 4 4 3 2 1 1 0 0 0 0 -0 -0 -0 0 1 1 1 1 1 1 1 1 1 1 1 2 2 2 2 2 2 2 2 3 3 3 3 3
2 2 3 3 4 5 5 6 7 7 5 4 4 4 4 4 4 3 3 2 1 -0 -1 -0 -0 -0 -0 -0 0 0 0 0 0 0 0 0 0 0 1 1 1 1 2 2 2 2 2 2 2 2 3 3 3 3
1 2 2 3 4 4 5 6 6 6 5 4 3 3 3 3 3 2 2 1 0 -0 -0 -0 -0 -0 -0 -0 0 0 0 0 -0 -0 -0 -0 0 0 1 1 1 2 2 3 3 3 3 3 3 3 3 4 4 4
2 2 2 3 4 4 5 6 6 5 4 4 3 3 3 2 2 1 1 0 -0 -0 -0 -0 -0 -0 -0 -0 0 0 0 -0 -0 0 0 1 1 1 2 2 3 3 3 3 3 3 3 3 3 3 4 4 4 3
2 2 2 3 4 4 6 7 6 5 4 3 3 2 2 2 1 1 0 0 -0 -0 -0 -0 -0 -0 0 0 0 0 0 0 0 1 1 2 2 3 3 3 3 3 3 3 3 2 2 3 3 3 3 3 3 3
2 2 2 3 4 5 6 6 5 4 3 3 2 2 1 1 1 0 0 -0 -0 -0 -0 0 0 0 0 0 0 0 0 1 1 1 2 3 3 3 3 3 3 2 2 2 2 2 2 2 2 2 3 3 3 3
2 2 3 4 5 5 5 5 4 3 3 2 2 1 1 1 0 0 0 0 0 0 0 1 1 1 1 0 0 1 1 1 2 2 3 3 3 2 2 2 2 2 1 1 1 2 2 2 2 2 2 2 3 3
3 3 4 4 4 4 4 4 3 2 2 1 1 1 1 0 0 0 1 1 1 1 1 1 1 1 1 1 1 1 2 3 3 3 3 3 2 2 1 1 2 2 1 1 2 2 1 2 2 2 2 2 2 2
4 4 4 4 3 2 2 3 3 2 1 1 1 1 1 1 1 1 1 1 2 2 2 2 2 2 2 2 2 3 3 3 4 3 3 2 2 2 2 2 2 2 2 2 2 2 2 2 2 2 2 2 2 3
5 5 5 4 3 2 2 2 2 1 1 1 1 1 1 1 2 2 2 2 3 3 3 3 3 3 3 3 3 4 4 4 3 3 3 2 2 2 2 2 2 2 2 2 3 3 3 3 3 3 3 3 3 3
5 4 4 3 3 2 2 2 2 1 1 1 1 1 2 2 3 3 3 4 4 4 4 4 4 3 3 3 4 4 4 3 3 3 3 3 2 2 3 3 3 3 3 4 4 4 4 5 5 4 4 4 5 5
4 4 3 3 3 2 2 2 2 2 2 2 2 3 3 4 4 4 4 5 5 4 4 4 3 3 3 3 3 3 3 3 3 3 3 3 3 3 4 4 4 4 5 5 6 6 6 6 6 6 6 6 6 6
4 4 3 3 3 3 3 3 3 4 4 4 4 4 5 5 5 5 5 4 4 4 3 3 3 3 3 3 3 3 3 3 3 3 3 4 4 4 5 5 5 5 5 6 6 6 6 6 6 6 6 6 6 6
5 4 4 3 3 4 4 4 5 5 5 5 5 5 5 5 5 4 4 4 3 3 3 3 3 3 3 3 3 3 3 3 3 3 4 4 5 5 5 5 5 5 5 5 5 5 5 5 5 5 5 5 5 5
5 5 5 4 4 5 5 5 5 5 5 5 5 5 4 4 4 4 4 4 3 3 3 3 3 3 3 3 3 3 3 3 3 3 4 4 5 4 4 4 4 4 4 5 5 5 5 5 5 4 4 4 4 4
5 5 5 5 5 5 5 5 5 5 5 5 5 4 4 4 4 4 4 4 4 4 4 4 3 3 3 3 3 3 3 3 4 4 4 4 4 4 4 4 4 5 5 6 6 6 6 5 5 5 4 4 4 4
5 5 5 5 5 5 5 4 4 4 4 4 4 4 4 4 4 4 4 4 4 4 3 3 3 3 3 3 3 3 3 3 4 5 5 5 5 5 5 6 6 6 6 6 6 6 5 5 5 5 4 4 4 4
4 4 4 4 4 4 4 4 4 4 4 4 4 5 4 4 4 4 4 4 3 3 3 3 3 3 3 3 3 3 3 4 4 5 6 6 6 6 6 6 6 6 6 5 5 5 5 5 4 4 4 4 4 4
3 3 3 3 3 3 3 3 3 3 4 4 4 4 4 3 3 3 3 3 3 3 3 3 3 2 2 3 3 3 3 4 4 5 6 6 6 6 6 6 5 5 5 5 5 4 4 4 4 4 4 4 4 4
3 3 3 3 3 3 3 3 3 3 3 3 3 3 3 3 3 3 3 3 3 3 2 3 3 3 3 3 3 3 3 4 4 4 5 5 6 5 5 5 5 5 4 4 4 4 4 4 4 4 4 4 4 4
3 3 3 3 3 3 3 3 3 3 3 3 3 3 3 3 3 3 3 3 3 3 3 3 3 3 3 3 3 3 3 4 4 4 5 5 5 5 5 4 4 4 4 4 4 4 4 4 4 4 4 4 5 5